Location: La Silve
(44.2414°N, 5.8889°E)
Time: 07:07:19
(UTC+00:00)

CENTAUR R/B - Pass Details

Date: 12 April 2021
Orbit: 742 x 1446 km, 63.4° (Epoch: 18 April)

Event Time Altitude Azimuth Distance (km) Brightness Sun altitude
Rises 19:49:52 0° 321° (NW) 4,188 7.2 -16.2°
Reaches altitude 10° 19:52:33 10° 320° (NW) 3,301 6.4 -16.6°
Maximum altitude 20:00:45 75° 238° (WSW) 1,446 3.4 -17.8°
Enters shadow 20:07:24 20° 156° (SSE) 2,847 4.4 -18.8°
